Location: Bonaustraße
(48.4603°N, 11.9280°E)
Time: 22:25:43
(UTC+02:00)

AO-92 - Pass Details

Date: 04 August 2021
Orbit: 484 x 494 km, 97.4° (Epoch: 17 September)

Event Time Altitude Azimuth Distance (km) Brightness Sun altitude
Exits shadow 23:15:34 48° 197° (SSW) 640 ? -19.1°
Maximum altitude 23:16:23 67° 258° (WSW) 530 ? -19.1°
Drops below altitude 10° 23:19:58 10° 342° (NNW) 1,679 ? -19.4°
Sets 23:22:04 0° 345° (NNW) 2,566 ? -19.6°
